Temperature
12 12 12 12 12 11 11 11 11 11 11 11 11 11 11 11 11 11 11 11 11 11 10 10 10 10 10 10 10 10 9 9 9 9 9 9 9 9 9 9 9 9 9
11 11 11 11 11 11 11 11 11 11 11 11 11 11 10 10 10 10 10 10 10 10 10 10 10 10 10 10 10 9 9 9 9 9 9 9 9 9 9 9 9 9 9
11 11 11 11 11 11 11 11 11 11 10 10 10 10 10 10 10 10 10 10 10 10 10 10 10 10 10 9 10 9 9 9 9 9 9 9 9 9 9 9 9 8 8
11 11 10 10 10 10 10 10 10 10 10 10 10 10 10 10 10 10 10 10 10 10 10 10 9 9 9 9 9 9 9 9 9 9 9 8 8 8 8 8 8 8 8
10 10 10 10 10 10 10 10 10 10 10 10 10 9 9 9 9 9 9 9 9 9 9 9 9 9 9 9 9 9 9 9 9 8 8 8 8 8 8 8 8 8 8
10 9 9 9 9 9 9 9 9 9 9 9 9 9 9 9 9 9 9 9 9 9 9 9 9 9 9 9 9 9 8 8 8 8 8 8 8 8 8 8 8 8 8
9 9 9 9 9 9 9 9 9 9 8 8 8 8 8 8 8 8 8 9 9 9 9 9 9 9 9 9 8 8 8 8 8 8 8 8 7 7 7 7 7 7 7
9 9 9 9 9 8 8 8 8 8 8 8 8 8 8 8 8 8 8 8 8 8 8 8 8 8 8 8 8 8 8 8 8 8 8 7 7 7 7 7 7 7 7
8 8 8 8 8 8 8 8 8 8 8 8 7 8 7 7 7 8 8 8 8 8 8 8 8 8 8 8 8 8 8 8 8 7 7 7 7 6 6 6 6 6 6
7 8 8 8 8 8 8 8 7 7 7 7 7 7 7 8 7 7 7 8 8 8 8 8 8 8 8 8 8 8 8 8 7 7 7 7 6 6 6 6 6 6 6
7 7 7 7 7 7 7 7 7 7 7 7 7 7 7 7 7 7 7 7 7 8 7 7 7 7 7 7 7 7 7 7 7 7 7 6 6 6 6 6 6 6 6
6 6 6 6 6 7 7 7 7 7 6 6 7 7 7 7 7 7 7 7 7 7 7 7 7 7 7 7 7 7 7 7 7 7 7 6 6 6 6 6 6 6 5
6 6 6 6 6 6 6 6 6 6 6 6 6 6 6 6 7 7 7 7 6 7 7 7 7 7 7 7 7 7 7 7 7 7 6 6 6 6 6 6 6 5 5
5 5 5 5 5 6 6 6 6 6 6 6 6 6 6 6 6 6 6 6 6 6 6 6 7 7 6 6 6 6 6 6 6 6 6 6 6 6 6 6 6 5 5
4 4 4 5 5 5 5 5 5 5 5 5 5 5 5 6 6 6 6 6 6 6 6 6 6 6 6 6 6 6 6 6 6 6 6 6 6 6 5 5 5 5 5
3 4 4 4 4 4 5 5 5 5 5 5 5 5 5 5 5 5 5 5 5 5 5 5 6 6 6 6 5 5 5 5 5 5 5 5 5 5 5 5 5 5 4
3 3 3 4 4 4 4 4 4 4 4 4 4 4 4 5 5 5 5 5 5 5 5 5 5 5 5 5 5 5 5 5 5 5 5 5 5 5 5 4 4 4 4
2 3 3 3 3 3 3 3 3 3 3 4 4 4 4 4 4 4 4 4 4 4 4 5 5 5 5 5 5 5 5 5 4 4 4 4 4 4 4 4 4 4 3
2 2 2 2 2 3 3 3 3 3 3 3 3 3 4 4 4 4 4 4 4 4 4 4 4 4 4 4 4 4 4 4 4 4 4 4 4 4 4 3 3 3 3
1 1 2 2 2 2 2 2 2 2 3 3 3 3 3 3 3 3 3 3 3 3 3 3 3 3 3 4 4 4 4 4 4 3 3 3 3 3 3 3 3 3 3
0 0 1 1 1 1 1 1 2 2 2 2 2 2 2 2 2 2 2 2 2 2 2 3 3 3 3 3 3 3 3 3 3 3 3 3 3 3 3 2 2 2 2
-0 -0 -0 0 0 0 1 1 1 1 1 1 1 1 1 1 1 2 2 2 2 2 2 2 2 2 2 2 2 2 2 2 2 2 2 2 2 2 2 2 2 2 1
-1 -1 -1 -1 -0 -0 -0 -0 -0 -0 -0 0 0 0 0 1 1 1 1 1 1 1 1 1 1 1 1 2 2 2 2 2 1 2 2 2 2 2 2 1 1 1 1
-2 -2 -2 -1 -1 -1 -1 -1 -1 -1 -1 -1 -0 -0 -0 0 0 0 0 0 1 1 1 1 1 1 1 1 1 1 1 1 1 1 1 1 1 1 1 1 1 1 1
-3 -2 -2 -2 -2 -1 -1 -1 -2 -1 -1 -1 -1 -1 -1 -1 -0 -0 -0 -0 -0 -0 -0 -0 -0 -0 0 0 0 0 0 0 0 0 0 0 0 0 1 1 0 0 0
-3 -3 -3 -3 -2 -2 -2 -2 -2 -2 -2 -2 -2 -1 -1 -1 -1 -1 -1 -1 -1 -1 -1 -1 -1 -1 -1 -1 -0 -0 -0 -1 -1 -1 -1 -1 -1 -1 -1 -0 -0 -0 -0
Wind_Speed
4 5 5 6 7 8 8 8 8 8 8 8 8 8 7 7 7 7 6 7 7 7 7 8 9 9 10 9 9 9 10 10 10 11 11 10 10 10 11 11 11 12 12
5 5 5 5 6 7 8 8 7 7 6 7 6 7 7 7 7 7 6 6 6 6 6 7 8 8 8 8 8 8 9 9 9 9 9 9 9 9 9 10 10 10 11
6 5 4 4 5 7 8 8 7 7 5 5 5 6 6 6 6 6 6 5 5 5 5 5 5 6 6 6 7 8 8 8 8 8 8 8 8 8 8 9 9 9 10
6 5 5 4 5 7 7 5 4 4 3 3 3 3 4 5 5 5 5 5 5 4 4 4 5 5 5 5 6 6 6 6 6 6 6 6 7 7 7 7 8 8 8
6 5 4 4 6 6 5 4 3 3 3 3 3 2 3 3 3 4 4 4 4 4 4 3 4 4 4 4 4 4 4 4 4 4 4 4 5 5 5 6 6 7 7
6 5 5 5 6 5 3 4 3 3 3 3 3 3 2 2 3 3 2 3 3 3 4 3 3 3 3 2 2 2 2 3 3 3 2 2 3 3 3 4 4 5 5
6 6 4 4 5 4 4 5 4 4 2 3 3 2 2 2 2 2 2 2 2 2 3 2 2 2 1 1 0 0 1 2 2 2 2 1 1 1 2 2 2 3 4
5 5 4 3 4 4 4 5 4 3 1 1 2 2 1 1 1 0 1 1 1 1 1 1 1 2 1 1 1 1 2 2 2 3 2 2 2 1 0 1 1 1 2
4 4 4 3 3 4 4 4 4 4 3 0 1 2 2 2 1 1 0 0 1 1 0 1 1 2 3 2 2 3 3 3 3 4 3 3 3 2 2 1 1 1 2
4 4 4 4 3 3 4 4 3 3 4 3 1 1 1 2 2 0 1 1 1 1 1 2 2 2 3 3 3 3 3 4 5 4 4 4 4 4 3 3 2 2 1
3 4 4 3 2 2 3 3 3 4 3 3 2 1 1 1 1 2 2 1 1 1 1 2 2 3 3 3 4 4 4 5 6 6 4 4 5 5 5 4 4 4 3
2 2 3 3 2 2 2 3 3 4 3 3 2 2 2 2 2 2 2 2 2 2 1 1 2 3 3 4 4 4 4 4 5 5 5 5 5 5 5 5 5 5 3
1 1 1 2 2 2 2 2 3 3 3 3 3 2 2 1 1 2 1 2 1 1 1 1 3 3 4 4 4 4 5 5 5 5 5 5 5 5 5 6 6 5 4
0 0 0 1 2 2 2 2 2 2 2 3 3 2 1 1 1 2 2 2 1 1 1 3 1 2 3 3 4 4 4 5 5 6 6 6 5 5 5 6 5 5 5
0 0 0 1 1 2 2 2 2 1 2 2 2 2 1 1 1 1 1 2 3 2 3 3 2 1 1 2 3 3 4 5 5 6 6 6 6 5 5 5 6 5 5
1 0 1 1 1 2 2 2 1 1 2 2 2 2 2 1 1 1 1 1 1 2 3 2 2 1 1 2 2 2 3 4 5 6 6 6 6 6 6 5 6 6 5
1 0 0 1 1 1 1 2 1 2 2 2 2 2 2 2 2 1 1 1 1 1 3 2 1 1 1 1 2 2 3 3 4 5 5 6 6 6 6 6 6 6 6
1 0 0 0 1 1 2 2 2 2 2 3 3 3 3 2 2 2 2 2 2 2 2 3 2 1 2 2 2 2 2 3 4 5 5 5 6 6 6 6 6 7 7
1 1 1 1 1 1 1 2 2 2 3 3 3 4 4 3 3 2 2 3 2 2 2 2 2 2 1 1 2 2 2 2 3 4 4 5 5 6 6 6 6 7 7
1 1 2 2 2 2 2 1 1 2 2 2 2 3 4 4 4 4 3 3 2 2 2 2 2 2 2 1 1 1 2 2 2 3 3 4 5 5 6 6 7 7 7
2 2 2 2 2 2 2 2 2 2 2 2 2 2 3 3 5 4 3 3 3 2 2 2 2 2 2 2 2 1 2 2 3 1 2 3 3 4 6 7 7 7 7
1 1 2 2 2 2 3 3 3 2 2 2 2 2 2 2 3 4 4 4 4 3 3 3 3 3 3 3 2 2 2 2 3 1 1 3 2 3 5 6 7 7 7
2 2 2 3 3 3 3 3 3 2 2 2 2 2 2 2 2 2 2 3 3 4 4 4 4 4 4 3 3 3 3 3 4 2 1 3 2 4 5 6 7 8 8
2 2 3 3 2 3 4 4 4 2 2 3 3 3 3 3 3 3 2 2 2 2 3 3 3 4 3 3 4 4 4 2 2 2 1 3 3 3 4 6 6 7 7
3 3 3 3 3 3 4 4 4 2 2 3 3 3 3 3 4 4 3 3 2 2 3 3 4 4 5 5 3 1 1 1 2 2 1 2 2 2 2 3 5 5 5
3 3 3 3 3 3 4 4 4 2 2 2 2 3 4 5 5 5 4 4 4 3 2 2 2 3 3 3 3 3 3 3 2 2 2 1 1 1 2 2 2 3 4
Wind_Direction
116 115 114 113 112 118 118 114 113 110 106 104 103 102 96 94 91 84 81 88 91 96 103 108 108 105 102 99 95 93 89 86 82 79 76 71 68 67 66 64 62 60 60
125 123 116 112 112 120 123 122 121 117 110 109 101 99 97 96 94 90 85 85 85 87 93 103 110 109 106 102 100 96 92 89 84 80 76 71 66 63 66 66 62 59 58
127 129 121 115 116 121 119 112 109 106 102 104 97 93 90 92 94 94 93 88 85 82 82 88 103 113 112 110 108 101 96 93 87 80 77 72 66 62 63 63 62 59 57
125 127 124 122 125 123 119 113 107 104 101 102 98 86 88 88 88 95 98 96 94 91 86 79 93 105 110 113 112 107 103 102 94 85 77 71 65 60 59 61 62 61 56
129 127 126 129 132 122 117 120 107 115 120 114 107 87 79 85 82 89 86 90 100 106 103 94 98 101 104 101 108 117 115 116 108 95 83 73 64 57 53 59 60 58 55
126 118 119 126 130 121 115 115 116 104 116 123 106 82 64 75 84 85 92 100 107 113 112 111 104 103 103 99 94 121 137 143 134 122 107 88 71 57 48 56 59 56 54
125 119 117 130 134 137 138 129 119 119 112 113 99 78 44 55 75 71 81 98 107 120 114 118 134 131 119 126 73 40 218 194 176 164 160 143 101 54 35 61 66 55 50
117 123 120 136 136 135 132 130 124 121 121 115 121 117 97 360 352 53 73 134 133 116 126 164 167 177 189 240 278 279 272 243 223 209 208 206 208 216 280 72 69 37 32
104 120 125 130 139 147 157 154 145 135 151 155 116 138 149 205 259 318 296 223 186 139 215 201 200 218 226 234 257 267 266 266 257 238 226 217 220 233 232 229 256 333 2
104 113 120 119 134 142 157 166 153 152 152 164 136 53 123 148 160 225 296 255 204 208 232 238 222 232 237 241 247 257 267 263 261 256 238 232 236 235 240 245 251 261 290
90 106 112 116 120 139 154 158 155 157 163 167 161 148 99 68 114 169 215 267 293 248 231 238 235 235 242 246 247 251 260 260 254 254 249 245 243 245 250 253 254 253 259
59 76 116 122 124 121 140 165 159 163 170 163 158 158 162 165 182 171 200 218 247 267 263 253 244 248 244 244 244 246 252 258 254 253 255 256 255 255 260 262 265 262 257
26 15 62 125 122 132 150 144 146 161 171 172 173 183 182 194 177 168 175 190 213 274 280 258 242 241 240 246 248 244 250 255 256 256 261 263 264 265 267 269 272 268 268
266 341 22 151 140 140 138 130 125 160 156 172 185 181 177 195 186 187 182 167 182 265 262 258 253 232 241 244 247 245 255 255 257 258 260 265 267 267 267 265 266 266 266
313 70 66 129 145 136 134 126 137 163 162 175 184 187 201 210 192 200 196 189 174 207 245 245 236 247 250 247 255 251 257 258 257 258 258 263 265 268 271 266 261 265 265
330 110 91 101 126 132 139 136 147 150 177 193 182 180 205 219 200 183 195 215 201 195 228 230 232 272 278 277 262 248 253 260 262 258 258 261 262 266 269 268 264 265 262
321 81 119 164 150 141 145 150 167 175 189 199 193 195 215 210 207 213 207 208 209 192 232 260 248 294 260 272 297 269 264 265 269 261 260 258 259 264 267 265 263 261 258
286 272 235 220 175 183 178 179 191 197 199 208 209 205 220 210 211 218 207 215 218 209 208 250 262 249 255 260 260 260 280 273 276 265 266 264 261 262 264 264 264 264 260
251 273 235 230 231 216 200 202 200 205 212 219 217 213 217 205 219 225 221 219 217 220 213 224 252 253 254 274 281 280 281 292 292 275 268 266 267 266 265 265 266 268 262
222 237 242 236 234 226 224 220 208 218 220 228 229 222 217 211 221 219 225 223 215 207 204 211 247 250 253 255 244 254 285 287 291 293 283 277 273 272 272 272 271 271 267
242 240 245 249 243 233 225 214 209 220 224 239 253 239 233 232 232 226 227 217 208 212 214 227 244 254 253 246 248 238 267 293 284 276 302 296 290 287 279 276 274 272 267
262 249 248 249 246 251 252 243 233 217 230 236 254 259 258 261 250 243 236 226 216 218 224 232 241 240 248 243 243 235 242 275 277 274 286 285 289 277 281 274 270 268 272
272 259 251 246 244 250 255 252 245 227 226 235 244 256 261 263 266 237 241 248 253 249 236 228 236 243 241 234 224 232 230 243 253 251 275 271 270 270 283 277 271 269 271
270 262 260 256 255 255 256 257 256 237 229 235 232 235 241 245 241 220 211 223 239 255 250 239 228 240 246 237 227 233 232 252 275 271 235 255 271 273 289 287 278 273 275
278 274 273 268 261 263 261 256 257 229 233 242 240 239 233 230 239 232 216 217 236 261 269 256 262 264 257 248 230 210 218 236 270 264 236 228 256 282 283 281 291 284 280
280 279 282 279 269 265 261 256 251 229 236 249 255 251 245 236 237 235 219 213 229 247 249 281 294 290 281 257 236 226 219 228 254 258 222 210 251 322 295 272 294 301 303
Height
1542 1544 1546 1547 1549 1551 1553 1555 1557 1559 1560 1562 1563 1565 1566 1567 1568 1569 1570 1571 1572 1572 1573 1573 1573 1574 1574 1574 1574 1574 1574 1574 1574 1574 1574 1574 1574 1574 1573 1573 1573 1573 1572
1541 1543 1544 1546 1548 1550 1552 1554 1556 1558 1559 1561 1562 1564 1565 1566 1567 1569 1569 1570 1571 1572 1573 1573 1573 1574 1574 1574 1575 1575 1575 1574 1574 1574 1574 1574 1574 1574 1574 1574 1573 1573 1573
1539 1541 1543 1545 1547 1549 1551 1553 1555 1557 1558 1560 1561 1563 1564 1565 1567 1568 1569 1570 1571 1571 1572 1573 1573 1574 1574 1574 1574 1575 1575 1575 1574 1574 1574 1574 1574 1574 1574 1574 1574 1573 1573
1538 1540 1542 1544 1546 1547 1549 1551 1553 1555 1556 1558 1560 1561 1563 1564 1565 1567 1568 1569 1570 1570 1571 1572 1573 1573 1574 1574 1574 1574 1575 1574 1574 1574 1574 1574 1574 1574 1574 1574 1574 1573 1573
1536 1538 1540 1542 1544 1546 1548 1550 1551 1553 1555 1556 1558 1559 1561 1562 1564 1565 1566 1567 1568 1569 1570 1571 1572 1572 1573 1573 1574 1574 1574 1574 1574 1573 1573 1573 1573 1573 1573 1573 1573 1573 1573
1534 1536 1538 1540 1542 1544 1546 1548 1550 1551 1553 1555 1556 1557 1559 1560 1562 1563 1564 1565 1566 1567 1568 1569 1570 1571 1572 1572 1573 1573 1573 1573 1573 1573 1573 1573 1573 1573 1573 1573 1572 1572 1572
1531 1534 1536 1538 1540 1542 1543 1545 1547 1549 1551 1552 1554 1555 1557 1558 1559 1561 1562 1563 1564 1565 1566 1568 1569 1569 1570 1571 1571 1572 1572 1572 1571 1571 1571 1571 1571 1572 1572 1572 1571 1571 1571
1529 1531 1534 1536 1538 1540 1541 1543 1545 1547 1548 1550 1552 1553 1554 1557 1557 1558 1559 1561 1562 1563 1564 1565 1566 1567 1568 1569 1569 1570 1570 1570 1570 1570 1570 1570 1570 1570 1570 1570 1570 1570 1570
1527 1529 1531 1533 1535 1537 1539 1541 1542 1544 1546 1548 1550 1552 1552 1553 1554 1556 1556 1558 1559 1560 1562 1563 1564 1565 1566 1566 1567 1567 1568 1568 1568 1568 1568 1568 1569 1569 1569 1569 1568 1568 1568
1525 1527 1529 1531 1533 1535 1537 1538 1540 1542 1544 1545 1547 1549 1551 1551 1552 1552 1554 1555 1556 1557 1559 1560 1561 1562 1563 1564 1564 1565 1565 1565 1566 1566 1566 1566 1567 1567 1567 1567 1566 1566 1566
1523 1525 1527 1528 1530 1532 1534 1536 1537 1539 1541 1543 1544 1545 1547 1549 1549 1550 1550 1552 1553 1554 1555 1557 1558 1559 1560 1560 1561 1562 1562 1563 1563 1563 1563 1563 1564 1564 1564 1564 1564 1564 1563
1520 1522 1524 1526 1527 1529 1531 1533 1534 1536 1538 1540 1541 1543 1544 1545 1546 1547 1548 1548 1550 1551 1552 1554 1555 1556 1557 1557 1558 1558 1559 1560 1560 1560 1560 1560 1561 1561 1561 1561 1561 1561 1560
1517 1519 1521 1522 1524 1526 1528 1530 1531 1533 1535 1537 1538 1540 1541 1543 1544 1545 1546 1546 1547 1548 1549 1550 1551 1552 1553 1554 1555 1555 1556 1556 1557 1557 1557 1557 1557 1558 1558 1558 1558 1558 1557
1514 1516 1518 1519 1521 1523 1524 1526 1528 1530 1532 1533 1535 1536 1538 1540 1541 1542 1543 1544 1544 1545 1546 1547 1548 1549 1550 1550 1551 1552 1552 1553 1553 1553 1553 1554 1554 1554 1554 1554 1554 1554 1554
1511 1513 1514 1516 1517 1519 1521 1522 1524 1526 1528 1530 1531 1533 1534 1536 1537 1539 1540 1541 1542 1541 1542 1543 1544 1545 1546 1547 1547 1548 1548 1549 1549 1549 1550 1550 1550 1550 1550 1550 1550 1550 1550
1509 1510 1511 1513 1514 1516 1517 1518 1520 1522 1524 1525 1527 1529 1530 1532 1533 1534 1536 1537 1538 1539 1538 1539 1540 1541 1542 1543 1544 1544 1544 1545 1545 1545 1546 1546 1546 1546 1546 1546 1546 1546 1546
1506 1507 1508 1510 1511 1512 1514 1515 1516 1518 1520 1521 1523 1524 1526 1528 1529 1530 1532 1533 1534 1535 1535 1535 1536 1537 1538 1539 1539 1540 1540 1541 1541 1541 1541 1542 1542 1542 1542 1542 1542 1542 1542
1503 1504 1505 1506 1507 1509 1510 1511 1513 1514 1516 1517 1519 1520 1522 1523 1525 1526 1527 1528 1530 1531 1531 1531 1532 1533 1534 1535 1535 1535 1536 1536 1537 1537 1537 1537 1537 1537 1538 1538 1538 1537 1537
1499 1501 1502 1503 1504 1505 1506 1508 1509 1510 1512 1513 1515 1516 1517 1519 1520 1521 1523 1524 1525 1526 1527 1527 1527 1528 1529 1530 1530 1531 1531 1532 1532 1532 1532 1532 1532 1533 1533 1533 1533 1532 1532
1496 1497 1498 1499 1500 1501 1502 1504 1505 1506 1507 1509 1510 1512 1513 1514 1515 1517 1518 1519 1520 1522 1523 1523 1523 1524 1524 1525 1526 1526 1526 1527 1527 1528 1528 1528 1528 1528 1528 1528 1527 1527 1527
1492 1493 1494 1495 1496 1497 1498 1500 1501 1502 1503 1504 1506 1507 1509 1510 1511 1512 1513 1514 1516 1517 1518 1518 1519 1519 1520 1520 1520 1521 1521 1521 1522 1522 1522 1523 1523 1522 1523 1522 1522 1522 1521
1488 1489 1490 1491 1492 1493 1494 1496 1497 1498 1499 1500 1501 1503 1504 1505 1506 1507 1508 1510 1511 1512 1513 1514 1514 1514 1515 1516 1516 1516 1516 1516 1516 1517 1517 1517 1517 1517 1517 1517 1516 1516 1516
1484 1485 1486 1487 1488 1489 1490 1492 1493 1494 1495 1496 1497 1498 1499 1500 1501 1502 1503 1504 1506 1507 1508 1509 1509 1509 1510 1511 1512 1512 1512 1511 1511 1511 1512 1511 1512 1511 1512 1511 1511 1511 1511
1481 1481 1482 1483 1484 1485 1486 1487 1489 1490 1491 1492 1493 1494 1495 1496 1497 1498 1499 1499 1500 1501 1503 1503 1504 1504 1505 1506 1507 1507 1507 1506 1507 1507 1507 1506 1506 1506 1506 1506 1506 1506 1506
1477 1478 1478 1479 1480 1481 1482 1483 1484 1485 1486 1487 1488 1489 1490 1491 1492 1493 1494 1495 1495 1496 1497 1498 1499 1500 1500 1501 1501 1502 1502 1502 1501 1501 1502 1502 1501 1501 1501 1500 1501 1501 1501
1474 1475 1475 1476 1476 1477 1478 1479 1480 1481 1481 1482 1483 1484 1485 1487 1488 1488 1489 1490 1491 1492 1493 1493 1494 1495 1495 1496 1496 1497 1497 1497 1496 1496 1496 1497 1497 1497 1495 1495 1495 1496 1495